[[{"header":{"parameterUnit":"m.s-1","parameterCategory":1,"la1":30.2991,"la2":30.254,"lo1":-89.0895,"lo2":-89.0444,"dy":0.0017,"dx":0.0017,"nx":28,"ny":28,"refTime":"2025-11-12T03:00:00:Z","depth":0,"parameterNumber":2,"parameterNumberName":"U-component_of_WINDS"},"data":[0,0,0,0,0,0,0,0,0,0,0,0,0,0,0,0,0,0,0,0,0,0,0,0,0,0,0,0,0,0,0,0,0,0,0,0,0,0,0,0,0,0,0,0,0,0,0,0,0,0,0,0,0,0,0,0,0,0,0.5791,0.5792,0,0.5874,0.5875,0.5876,0.5904,0.5904,0.5903,0.5903,0.5988,0.5991,0.5994,0,0,0,0,0,0,0,0,0,0,0,0,0,0.5653,0.5655,0.5791,0.5792,0.5793,0.5874,0.5875,0.5876,0.5904,0.5904,0.5903,0.5903,0.5988,0.5991,0.5994,0,0,0,0,0,0,0,0,0,0,0,0,0,0.5722,0.5656,0.579,0.5816,0.5819,0.5874,0.5875,0.5877,0.5904,0.5904,0.5903,0.5903,0.5987,0.599,0.5994,0.6029,0,0,0.6006,0.6008,0,0,0,0,0,0,0,0,0.5718,0.5727,0.5811,0.5815,0.5818,0.5878,0.5858,0.5928,0.5904,0.5872,0.5903,0.5902,0.5952,0.5959,0.5976,0.6033,0.6036,0.6006,0.6009,0.6011,0.6012,0,0,0,0,0,0,0,0.5713,0.5724,0.5824,0.5813,0.5817,0.5823,0.5832,0.5871,0.5914,0.5875,0.5877,0.5886,0.5954,0.5972,0.5978,0.6038,0.6006,0.601,0.6012,0.6014,0.6125,0.6125,0,0,0,0,0,0,0.5704,0.572,0.5821,0.5826,0.5766,0.5826,0.5836,0.5859,0.5914,0.5921,0.5887,0.5887,0.5965,0.5973,0.5981,0.6024,0.601,0.6014,0.6016,0.6124,0.6125,0.6125,0,0,0,0,0,0,0.5701,0.5713,0.5818,0.5774,0.5787,0.5829,0.5855,0.5861,0.5879,0.5923,0.593,0.5898,0.5965,0.5975,0.6016,0.6027,0.6016,0.6019,0.6123,0.6124,0.6125,0.611,0,0,0,0,0,0,0.5697,0.5712,0.5726,0.5774,0.579,0.5852,0.5855,0.5863,0.5886,0.5888,0.5935,0.5942,0.5966,0.601,0.602,0.6032,0.6023,0.6122,0.6124,0.6125,0.611,0.611,0.6111,0,0,0,0,0,0.5692,0.5719,0.5727,0.5739,0.5808,0.5853,0.5862,0.5888,0.5887,0.5901,0.5928,0.5941,0.6024,0.6014,0.6025,0.6039,0.6122,0.6123,0.6125,0.611,0.611,0.6111,0,0,0,0,0,0,0.5673,0.5726,0.5735,0.5779,0.5811,0.5857,0.5876,0.5889,0.5922,0.5922,0.5954,0.5964,0.6002,0.6024,0.6012,0.6074,0.6073,0.6077,0.6058,0.6059,0.606,0.6054,0.6026,0,0,0,0,0,0.5674,0.5706,0.575,0.5784,0.58,0.5835,0.5855,0.5873,0.5907,0.5921,0.5952,0.5985,0.6018,0.604,0.6073,0.6113,0.6122,0.6127,0.6128,0.6128,0.6131,0.6151,0.6154,0.613,0.613,0.613,0,0,0.5676,0.5709,0.5727,0.5781,0.5808,0.5839,0.5846,0.588,0.5904,0.5927,0.5967,0.599,0.6028,0.6068,0.6087,0.6088,0.6139,0.613,0.613,0.6133,0.6153,0.6155,0.6157,0.6131,0.613,0.613,0,0,0.5696,0.5724,0.5755,0.5781,0.5821,0.5844,0.5851,0.5895,0.5911,0.5952,0.5969,0.5997,0.6054,0.608,0.6101,0.6127,0.6139,0.6137,0.614,0.616,0.6162,0.6163,0.6172,0.6174,0.614,0.614,0.614,0,0.5693,0.5742,0.5769,0.5801,0.5823,0.5844,0.5874,0.5899,0.5948,0.5962,0.5962,0.6033,0.6061,0.6106,0.6112,0.6128,0.6136,0.6132,0.6159,0.6161,0.6163,0.6171,0.6175,0.6139,0.6139,0.6139,0.6139,0,0.5736,0.5769,0.5789,0.5835,0.5859,0.5891,0.5921,0.5942,0.5956,0.5978,0.6018,0.6051,0.6091,0.6102,0.6117,0.6149,0.6148,0.6153,0.6153,0.6165,0.6173,0.6176,0.6138,0.6138,0.6139,0.6139,0,0,0.5749,0.5807,0.5814,0.5834,0.5879,0.5905,0.5935,0.5973,0.599,0.6023,0.6049,0.6095,0.6099,0.6123,0.614,0.6157,0.6174,0.616,0.6161,0.6161,0.6209,0.6205,0.6208,0.6181,0.6182,0.6182,0.6205,0,0.5774,0.5831,0.5854,0.59,0.5929,0.5948,0.5975,0.6004,0.6025,0.6053,0.6076,0.6108,0.6111,0.6125,0.6143,0.6168,0.6184,0.6166,0.6205,0.6206,0.6195,0.6213,0.6209,0.6229,0.6209,0.6209,0.621,0,0.5812,0.5843,0.5892,0.593,0.5944,0.5967,0.6003,0.6029,0.6062,0.6076,0.61,0.6116,0.6148,0.6145,0.6188,0.6175,0.6192,0.6206,0.6208,0.6213,0.6209,0.6218,0.6237,0.6239,0.6215,0.6215,0.6214,0,0.5815,0.587,0.5905,0.5922,0.5968,0.5984,0.6004,0.6036,0.6057,0.6087,0.61,0.6134,0.6153,0.6178,0.6201,0.6197,0.6241,0.6241,0.6253,0.6252,0.6263,0.6262,0.6284,0.6273,0.6273,0.6273,0.6273,0,0.5841,0.587,0.5907,0.5929,0.596,0.5986,0.6016,0.6038,0.6066,0.6091,0.6109,0.6132,0.6162,0.6188,0.6207,0.6239,0.6247,0.6258,0.6263,0.6257,0.6255,0.6269,0.6268,0.6274,0.6273,0.6273,0.6273,0,0.5851,0.5877,0.5917,0.5956,0.5967,0.5988,0.6022,0.6043,0.6063,0.6095,0.6104,0.6136,0.6168,0.6193,0.6235,0.6248,0.6281,0.6286,0.627,0.6272,0.6283,0.6281,0.6315,0.632,0.6305,0.6305,0.6305,0,0.5866,0.5888,0.593,0.5948,0.5967,0.5997,0.6017,0.6042,0.6063,0.61,0.6116,0.6149,0.6177,0.6226,0.6253,0.6284,0.629,0.63,0.6295,0.6288,0.629,0.6288,0.629,0.63,0.63,0.63,0.63,0,0.589,0.5901,0.593,0.5963,0.5987,0.6014,0.6041,0.6055,0.6085,0.6106,0.6139,0.616,0.6202,0.6234,0.6267,0.6287,0.6298,0.6301,0.6306,0.63,0.6289,0.6295,0.6271,0.6301,0.6301,0.6301,0.6301,0.6301,0.5903,0.5923,0.5954,0.5985,0.6008,0.6033,0.6054,0.6076,0.6104,0.614,0.6152,0.6185,0.6215,0.6261,0.628,0.6305,0.6307,0.6313,0.6315,0.6316,0.6315,0.6285,0.6312,0.6312,0.6312,0.6312,0.6312,0,0.5927,0.5948,0.5976,0.6013,0.6037,0.6045,0.6075,0.6094,0.6123,0.615,0.6176,0.6212,0.6242,0.627,0.6301,0.6316,0.6322,0.6323,0.6323,0.6326,0.6313,0.6306,0.6318,0.6318,0.6318,0.6318,0.6318,0.6318,0.5943,0.5976,0.599,0.6035,0.6055,0.6087,0.6104,0.6126,0.6147,0.6186,0.6211,0.6229,0.6256,0.6288,0.6316,0.6323,0.6333,0.6333,0.6342,0.6329,0.6328,0.6327,0.632,0.6335,0.6335,0.6354,0.6354,0.6354]},{"header":{"parameterUnit":"m.s-1","parameterCategory":1,"la1":30.2991,"la2":30.254,"lo1":-89.0895,"lo2":-89.0444,"dy":0.0017,"dx":0.0017,"nx":28,"ny":28,"refTime":"2025-11-12T03:00:00:Z","depth":0,"parameterNumber":3,"parameterNumberName":"V-component_of_WINDS"},"data":[0,0,0,0,0,0,0,0,0,0,0,0,0,0,0,0,0,0,0,0,0,0,0,0,0,0,0,0,0,0,0,0,0,0,0,0,0,0,0,0,0,0,0,0,0,0,0,0,0,0,0,0,0,0,0,0,0,0,1.8659,1.8659,0,1.8672,1.8673,1.8673,1.8669,1.8668,1.8668,1.8668,1.8679,1.8679,1.868,0,0,0,0,0,0,0,0,0,0,0,0,0,1.8622,1.8623,1.8659,1.8659,1.8659,1.8672,1.8673,1.8673,1.8669,1.8668,1.8668,1.8668,1.8678,1.8679,1.868,0,0,0,0,0,0,0,0,0,0,0,0,0,1.8637,1.8623,1.8659,1.8659,1.8659,1.8672,1.8673,1.8673,1.8669,1.8668,1.8668,1.8668,1.8678,1.8679,1.868,1.8693,0,0,1.8682,1.8683,0,0,0,0,0,0,0,0,1.8636,1.8638,1.8658,1.8659,1.8659,1.8668,1.8664,1.868,1.8669,1.8665,1.8668,1.8667,1.8675,1.8676,1.868,1.8694,1.8694,1.8682,1.8683,1.8683,1.8683,0,0,0,0,0,0,0,1.8635,1.8638,1.8664,1.8659,1.8659,1.8656,1.8657,1.8667,1.8672,1.8665,1.8665,1.8667,1.8675,1.8679,1.868,1.8694,1.8682,1.8683,1.8684,1.8684,1.8714,1.8714,0,0,0,0,0,0,1.8635,1.8637,1.8663,1.8664,1.8646,1.8657,1.8659,1.8666,1.8672,1.8673,1.8667,1.8667,1.8678,1.8679,1.868,1.8693,1.8683,1.8684,1.8684,1.8714,1.8714,1.8715,0,0,0,0,0,0,1.8634,1.8637,1.8663,1.8651,1.8654,1.8658,1.8666,1.8666,1.867,1.8674,1.8674,1.867,1.8678,1.8679,1.8689,1.8694,1.8684,1.8685,1.8714,1.8714,1.8714,1.8721,0,0,0,0,0,0,1.8633,1.8637,1.8644,1.8651,1.8654,1.8674,1.8666,1.8667,1.8672,1.8671,1.8677,1.8677,1.8677,1.8688,1.869,1.8695,1.8686,1.8713,1.8714,1.8714,1.8721,1.8722,1.8723,0,0,0,0,0,1.8632,1.8646,1.8644,1.8648,1.8664,1.8674,1.8676,1.8677,1.8672,1.8678,1.8679,1.8677,1.8693,1.8689,1.8691,1.8696,1.8713,1.8714,1.8714,1.872,1.8722,1.8723,0,0,0,0,0,0,1.864,1.8647,1.8646,1.8663,1.8668,1.8673,1.8681,1.8679,1.8685,1.8684,1.8683,1.8685,1.8694,1.8696,1.8692,1.8707,1.8702,1.8703,1.8705,1.8707,1.8708,1.8707,1.8686,0,0,0,0,0,1.8643,1.8653,1.8658,1.8672,1.8675,1.8677,1.8682,1.8682,1.8687,1.8689,1.8691,1.8695,1.87,1.8703,1.8709,1.872,1.872,1.8724,1.8726,1.8727,1.8727,1.8729,1.8731,1.8717,1.8717,1.8717,0,0,1.8651,1.8656,1.8662,1.8674,1.8678,1.8685,1.8679,1.8689,1.8693,1.869,1.8699,1.87,1.8704,1.8713,1.8718,1.8715,1.8731,1.8727,1.8728,1.8729,1.873,1.8732,1.8733,1.8717,1.8717,1.8717,0,0,1.8669,1.8675,1.8686,1.8689,1.8695,1.8696,1.8698,1.8703,1.8704,1.8713,1.8709,1.8713,1.8724,1.8725,1.8727,1.874,1.8736,1.8741,1.8747,1.8749,1.875,1.8751,1.8753,1.8754,1.8742,1.8742,1.8742,0,1.8678,1.8691,1.8691,1.87,1.8703,1.87,1.8708,1.8711,1.8718,1.8719,1.8717,1.8726,1.8729,1.8737,1.8739,1.8742,1.8742,1.8741,1.8751,1.8751,1.8752,1.8754,1.8755,1.8743,1.8743,1.8742,1.8742,0,1.8699,1.8708,1.8715,1.8721,1.8725,1.8734,1.8733,1.8737,1.8735,1.8735,1.8742,1.8744,1.8748,1.875,1.8749,1.8756,1.8754,1.8751,1.8746,1.8754,1.8755,1.8756,1.8743,1.8743,1.8743,1.8743,0,0,1.8725,1.8728,1.8731,1.8732,1.8736,1.8741,1.8747,1.8751,1.8753,1.8757,1.876,1.8766,1.8762,1.8764,1.8763,1.8765,1.877,1.8761,1.8761,1.8761,1.8775,1.8777,1.8778,1.8768,1.8768,1.8768,1.8774,0,1.8741,1.8754,1.8752,1.8763,1.8769,1.8763,1.8768,1.877,1.8769,1.8771,1.877,1.8773,1.8769,1.877,1.8771,1.877,1.8773,1.8769,1.8769,1.8769,1.8768,1.8779,1.8782,1.8787,1.8775,1.8775,1.8775,0,1.8763,1.8766,1.8777,1.8776,1.8779,1.8784,1.8784,1.8788,1.8788,1.8787,1.8787,1.8784,1.8786,1.8781,1.8783,1.8781,1.878,1.8778,1.8778,1.8778,1.8772,1.8777,1.8789,1.8789,1.8776,1.8776,1.8776,0,1.8776,1.8784,1.8791,1.8792,1.8792,1.8795,1.8794,1.8794,1.8795,1.8795,1.8795,1.8796,1.8795,1.8795,1.879,1.8787,1.8791,1.8787,1.8788,1.8788,1.879,1.879,1.88,1.8791,1.8791,1.8791,1.8791,0,1.8794,1.88,1.8796,1.8801,1.8806,1.8803,1.8808,1.8807,1.8806,1.8807,1.8803,1.8804,1.8799,1.8798,1.8795,1.8795,1.8795,1.8793,1.8791,1.8793,1.8793,1.8792,1.8791,1.8791,1.8791,1.8791,1.8791,0,1.8811,1.8809,1.8815,1.8814,1.8813,1.8817,1.8815,1.8817,1.8814,1.8816,1.8816,1.8812,1.8811,1.8806,1.8805,1.8802,1.8803,1.8801,1.8803,1.8802,1.8804,1.8803,1.8814,1.8814,1.8805,1.8806,1.8806,0,1.8822,1.8826,1.8824,1.8825,1.8825,1.8827,1.8828,1.8823,1.8824,1.8821,1.8823,1.8821,1.882,1.8818,1.8814,1.8811,1.8809,1.8812,1.8808,1.8808,1.8806,1.8806,1.8805,1.8813,1.8813,1.8813,1.8813,0,1.884,1.8838,1.8839,1.8839,1.884,1.884,1.8839,1.8839,1.8834,1.8834,1.8833,1.8832,1.8829,1.8826,1.8823,1.882,1.8815,1.8815,1.8814,1.8816,1.8816,1.8813,1.8804,1.8814,1.8814,1.8814,1.8814,1.8814,1.8853,1.8855,1.8853,1.8854,1.8852,1.8851,1.8852,1.8849,1.8848,1.8846,1.8843,1.8841,1.8837,1.8831,1.8828,1.8825,1.8823,1.8823,1.8823,1.8823,1.8823,1.8816,1.8825,1.8824,1.8824,1.8824,1.8824,0,1.8869,1.8866,1.8867,1.8866,1.8865,1.8861,1.8858,1.8858,1.8857,1.8854,1.8852,1.8849,1.8846,1.884,1.8835,1.8834,1.8831,1.8833,1.8832,1.8831,1.8826,1.8826,1.8835,1.8835,1.8835,1.8835,1.8835,1.8835,1.8877,1.888,1.8877,1.8877,1.8875,1.8874,1.8873,1.887,1.8867,1.8864,1.8861,1.8858,1.8852,1.8846,1.8842,1.884,1.8838,1.884,1.8837,1.8833,1.8832,1.8831,1.883,1.884,1.884,1.8842,1.8842,1.8842]}]]